Location: Milton
(43.5183°N, 79.8775°W)
Time: 06:51:04
(UTC+00:00)

N. Korean satellite - Pass Details

Date: 09 December 2022
Orbit: 407 x 444 km, 97.3° (Epoch: 28 January)

Event Time Altitude Azimuth Distance (km) Brightness Sun altitude
Rises 11:08:45 0° 4° (N) 2,494 10.0 -16.0°
Reaches altitude 10° 11:10:54 10° 356° (N) 1,606 9.0 -15.7°
Maximum altitude 11:14:06 37° 288° (WNW) 727 6.9 -15.1°
Drops below altitude 10° 11:17:13 10° 220° (SW) 1,565 8.9 -14.6°
Sets 11:19:17 0° 211° (SSW) 2,419 10.0 -14.2°
